Flag for U.S.A. Weather past 2 weeks in Prudhoe Bay, Alaska, U.S.A.

Now
0 °F

Overcast.


Feels Like: -19 °F
Forecast: -12 / -3 °F
Wind: 14 mph from Southwest

Location: Deadhorse Airport

Current Time: Dec 22, 2014 at 2:09:22 PM

Latest Report: Dec 22, 2014 at 12:53 PM


Visibility: 10 mi

Pressure: 29.90 "Hg

Humidity: 75%

Dew point: -6 °F

Location of Prudhoe BayLocation

Historic Weather in Prudhoe Bay — Graph

°F

Prudhoe Bay temperature yesterday

Maximum temperature yesterday: 3 °F (at 2:53 AM)
Minimum temperature yesterday: -9 °F (at 2:53 PM)
Average temperature yesterday: -4 °F

Past Weeks' High & Low Weather Summary

 TemperatureHumidityPressure
High5 °F (Dec 20, 11:53 AM)90% (Dec 14, 3:53 AM)30.26 "Hg (Dec 14, 3:53 AM)
Low-35 °F (Dec 10, 8:53 PM)61% (Dec 14, 10:53 AM)29.55 "Hg (Dec 21, 7:01 AM)
Average-11 °F73%29.86 "Hg
* Reported Dec 7 11:00 AM — Dec 22 11:53 AM, Prudhoe Bay, Weather by CustomWeather, © 2014

Note: Actual official high and low records may vary slightly from our data, if they occured in-between our weather recording intervals... More about our weather records

Advertising

Prudhoe Bay weather history for previous 24 hours

 ConditionsComfort  
Time TempWeatherWind HumidityBarometerVisibility
11:53 AM
Dec 22
-3 °FOvercast.14 mph75%29.88 "Hg10 mi
11:00 AM-6 °FScattered clouds.14 mph75%29.85 "Hg10 mi
9:53 AM-5 °FOvercast.12 mph75%29.83 "Hg10 mi
8:53 AM-6 °FScattered clouds.15 mph75%29.82 "Hg10 mi
7:53 AM-6 °FScattered clouds.12 mph71%29.80 "Hg10 mi
6:53 AM-5 °FOvercast.13 mph75%29.78 "Hg10 mi
5:53 AM-3 °FMostly cloudy.16 mph75%29.77 "Hg10 mi
4:53 AM-3 °FMostly cloudy.9 mph75%29.75 "Hg10 mi
3:53 AM-5 °FPassing clouds.8 mph75%29.74 "Hg10 mi
2:53 AM-8 °FPassing clouds.9 mph74%29.73 "Hg10 mi
1:53 AM-9 °FPassing clouds.8 mph78%29.71 "Hg10 mi
12:53 AMN/APartly sunny.10 mphN/A29.71 "Hg10 mi
11:53 PM
Dec 21
N/APassing clouds.9 mphN/A29.68 "Hg10 mi
10:53 PMN/APassing clouds.7 mphN/A29.67 "Hg10 mi
9:53 PM-9 °FPassing clouds.8 mph70%29.66 "Hg10 mi
8:53 PM-9 °FOvercast.7 mph70%29.65 "Hg10 mi
7:53 PM-8 °FOvercast.8 mph71%29.64 "Hg10 mi
6:53 PM-8 °FOvercast.8 mph71%29.63 "Hg10 mi
5:53 PM-9 °FOvercast.6 mph70%29.63 "Hg10 mi
4:53 PM-8 °FLight snow. Overcast.8 mph71%29.62 "Hg7 mi
4:00 PM-8 °FOvercast.9 mph71%29.61 "Hg10 mi
2:53 PM-9 °FOvercast.10 mph70%29.62 "Hg10 mi
Weather by CustomWeather, © 2014

See weather overviewHow to use our weather pages